Погода в Карауле

Россия / Красноярский край     70°04′12″N   83°12′31″E
темп.,
°C
ветер,
м/с
пор.,
м/с
влажн.,
%
обл.,
%
осадки,
мм/ч
давл.,
гПа
погр.,
м
4 июля, пн
пн401:00+6с814695 0.0 1007218
04:00+5с813745 0.0 1007274
07:00+6с811694 0.0 1007292
10:00+8с8106053 0.0 1007429
13:00+9с89540 0.0 1006538
16:00+10с78490 0.0 1006559
19:00+10с68460 0.0 1006464
22:00+9с59570 0.0 1006253
5 июля, вт
вт501:00+7с45710 0.0 100671
04:00+6с34732 0.0 100655
07:00+8ссз33665 0.0 1007181
10:00+10сз225828 0.0 1006559
13:00+10зсз4358100 0.0 1007535
16:00+10ссз2258100 0.0 1007397
19:00+12зсз235566 0.0 1007476
22:00+10з2365100 0.0 100666
6 июля, ср
ср601:00+10юз226889 0.0 100616
04:00+9зюз2375100 0.0 100662
07:00+10зюз2279100 0.0 1006107
10:00+10з2381100 0.0 1006298
13:00+11з238077 0.0 1006466
16:00+11с5581100 0.2 1006279
19:00+10с5774100 0.2 1008197
22:00+9с697155 0.0 1009178
7 июля, чт
чт701:00+7с587122 0.0 1011156
04:00+5с46695 0.0 1012103
07:00+6ссз45655 0.0 1013174
10:00+8ссз3360100 0.0 1013421
13:00+10сз3257100 0.0 1014531
16:00+10ссз2354100 0.0 1014574
19:00+10вюв1156100 0.0 1013246
22:00+11ююв225991 0.0 101252
8 июля, пт
пт801:00+10юв446172 0.0 101143
04:00+9ююв466788 0.0 101077
07:00+11ю6866100 0.0 1008155
10:00+13ю6963100 0.0 1005285
13:00+14ююз4771100 0.3 1003287
16:00+15з6985100 0.9 1001231
19:00+10с5799100 7.9 999129
22:00+10сз61199100 10.4 999297